Weather History for Grand Forks, ND

Change the Weather History Date:

Monday, April 16, 2012

  Actual Average Record
Temperature  
Mean Temperature 32 °F 42 °F  
Max Temperature 39 °F 55 °F 87 °F (2002)
Min Temperature 24 °F 30 °F 14 °F (1953)
Degree Days  
Heating Degree Days 33 23  
Month to date heating degree days 325 428  
Since 1 July heating degree days 6991 8813  
Cooling Degree Days 0 0  
Month to date cooling degree days 0 0  
Year to date cooling degree days 0 0  
Moisture  
Dew Point 19 °F    
Average Humidity 58    
Maximum Humidity 75    
Minimum Humidity 40    
Precipitation  
Precipitation 0.00 in 0.03 in 0.24 in (2003)
Month to date precipitation 0.78 0.46  
Year to date precipitation 3.46 2.49  
Snow  
Snow 0.00 in 0.10 in 2.00 in (2003)
Month to date snowfall T 1.8  
Since 1 July snowfall 22.8 46.2  
Snow Depth 0.00 in    
Sea Level Pressure  
Sea Level Pressure 30.02 in    
Wind  
Wind Speed 15 mph (NNW)    
Max Wind Speed 28 mph    
Max Gust Speed 36 mph    
Visibility 10 miles    
Events      
T = Trace of Precipitation, MM = Missing Value Source: NWS Daily Summary

Daily Weather History Graph

Daily Weather History Graph

Search for Another Location

Airport:

Trip Planner

Search our weather history database for the weather conditions in past years. The results will help you decide how hot, cold, wet, or windy it might be!

Date:

Astronomy

Apr. 16, 2012 Rise Set
Actual Time 6:36 AM CDT 8:21 PM CDT
Civil Twilight 6:03 AM CDT 8:54 PM CDT
Nautical Twilight 5:23 AM CDT 9:34 PM CDT
Astronomical Twilight 4:39 AM CDT 10:18 PM CDT
Moon 4:24 AM CDT (4/16) 4:00 PM CDT (4/16)
Length of Visible Light 14h 50m
Length of Day
13h 44m
Waning Crescent, 19% of the Moon is Illuminated
Apr 16
Waning Crescent
Apr 21
New
Apr 29
First Quarter
May 5
Full
May 12
Last Quarter

Hourly Weather History & Observations

Time (CDT) Temp. Windchill Dew Point Humidity Pressure Visibility Wind Dir Wind Speed Gust Speed Precip Events Conditions
12:53 AM 33.1 °F 20.1 °F 26.1 °F 75% 29.81 in 10.0 mi North 25.3 mph 33.4 mph N/A   Overcast
2:53 AM 30.9 °F 16.9 °F 21.9 °F 69% 29.84 in 10.0 mi North 26.5 mph 34.5 mph N/A   Overcast
3:53 AM 30.9 °F 19.1 °F 21.9 °F 69% 29.86 in 10.0 mi North 18.4 mph - N/A   Overcast
4:53 AM 30.0 °F 17.5 °F 21.9 °F 72% 29.88 in 10.0 mi NNW 19.6 mph 28.8 mph N/A   Overcast
5:53 AM 28.0 °F 14.6 °F 21.0 °F 75% 29.91 in 10.0 mi NNW 20.7 mph 27.6 mph N/A   Overcast
6:53 AM 27.0 °F 12.8 °F 19.9 °F 75% 29.94 in 10.0 mi North 21.9 mph 29.9 mph N/A   Mostly Cloudy
8:53 AM 28.0 °F 13.0 °F 18.0 °F 66% 29.99 in 10.0 mi NNW 26.5 mph 32.2 mph N/A   Overcast
9:53 AM 30.0 °F 16.3 °F 18.0 °F 61% 30.01 in 10.0 mi NNW 24.2 mph 33.4 mph N/A   Mostly Cloudy
10:53 AM 32.0 °F 19.5 °F 18.0 °F 56% 30.04 in 10.0 mi North 21.9 mph 32.2 mph N/A   Scattered Clouds
12:53 PM 37.0 °F 27.4 °F 19.9 °F 50% 30.06 in 10.0 mi North 17.3 mph 31.1 mph N/A   Mostly Cloudy
1:53 PM 37.0 °F 26.2 °F 17.1 °F 44% 30.07 in 10.0 mi NNW 21.9 mph 29.9 mph N/A   Mostly Cloudy
2:53 PM 37.0 °F 27.4 °F 16.0 °F 42% 30.08 in 10.0 mi NNW 17.3 mph 26.5 mph N/A   Mostly Cloudy
3:53 PM 37.9 °F 29.2 °F 18.0 °F 45% 30.09 in 10.0 mi NNW 15.0 mph - N/A   Overcast
4:53 PM 37.0 °F 28.9 °F 18.0 °F 46% 30.10 in 10.0 mi NNW 12.7 mph - N/A   Overcast
6:53 PM 37.9 °F 33.5 °F 17.1 °F 43% 30.13 in 10.0 mi WNW 5.8 mph - N/A   Mostly Cloudy
7:53 PM 37.0 °F 33.3 °F 17.1 °F 44% 30.14 in 10.0 mi West 4.6 mph - N/A   Scattered Clouds
9:53 PM 27.0 °F 21.6 °F 19.0 °F 72% 30.17 in 10.0 mi SSW 4.6 mph - N/A   Partly Cloudy
10:53 PM 27.0 °F - 19.0 °F 72% 30.17 in 10.0 mi Calm Calm - N/A   Clear
11:53 PM 28.0 °F 24.2 °F 19.9 °F 72% 30.17 in 10.0 mi WSW 3.5 mph - N/A   Clear